Welcome to the New NWS' Forecast!
Most changes are behind the scenes, but click here for differences you might notice.

Terminal Aerodrome Forecast (TAF)

Issued by National Weather Service (NWS)

                            
000
FTUS42 KKEY 191747
TAFEYW
TAF
KEYW 191747Z 1918/2018 10008KT P6SM FEW025 SCT080=